AirNav   Air Wisconsin pilot careers
 
 678 users online  

ME11 Cooper Seaplane Base
Hartford, Maine, USA

GOING TO HARTFORD?


FAA INFORMATION EFFECTIVE 24 MAY 2018

Location

FAA Identifier: ME11
Lat/Long: 44-20-32.2440N / 070-17-16.2080W
44-20.537400N / 070-17.270133W
44.3422900 / -70.2878356
(estimated)
Elevation: 373 ft. / 114 m (estimated)
Variation: 17W (1985)
From city: 3 miles E of HARTFORD, ME
Time zone: UTC -4 (UTC -5 during Standard Time)
Zip code: 04221

Seaplane Base Operations

Seaplane Base use: Private use. Permission required prior to landing
Activation date: 05/1989
Control tower: no
ARTCC: BOSTON CENTER
FSS: BANGOR FLIGHT SERVICE STATION
Attendance: UNATNDD
Wind indicator: yes
Segmented circle: no

Seaplane Base Communications

WX AWOS-3PT at LEW (18 nm S): 118.025 (207-783-2806)

Nearby radio navigation aids

VOR radial/distance  VOR name  Freq  Var
AUGr292/21.1AUGUSTA VOR/DME111.4018W

Seaplane Base Services

Runway Information

Runway 16W/34W

Dimensions: 4000 x 500 ft. / 1219 x 152 m
Surface: water
RUNWAY 16W  RUNWAY 34W
Traffic pattern: leftleft

Runway 5W/23W

Dimensions: 3000 x 500 ft. / 914 x 152 m
Surface: water
RUNWAY 5W  RUNWAY 23W
Traffic pattern: leftleft
Obstructions: 40 ft. trees, 800 ft. from runway, 20:1 slope to clear40 ft. trees, 800 ft. from runway, 20:1 slope to clear

Seaplane Base Ownership and Management from official FAA records

Ownership: Privately-owned
Owner: MICHAEL D. COOPER
PO BOX 552
N. TURNER, ME 04266
Phone 207-224-7950
Manager: MICHAEL D. COOPER
PO BOX 552
N. TURNER, ME 04266
Phone 207-224-7950

Seaplane Base Operational Statistics

Aircraft based on the field: 1
Single engine airplanes: 1
    

Instrument Procedures

There are no published instrument procedures at ME11.

Some nearby airports with instrument procedures:

81B - Oxford County Regional Airport (14 nm SW)
KLEW - Auburn/Lewiston Municipal Airport (18 nm S)
KAUG - Augusta State Airport (21 nm E)
KWVL - Waterville Robert LaFleur Airport (29 nm NE)
KOWK - Central Maine Airport of Norridgewock (29 nm NE)
 
Loc | Ops | Rwys | IFR | FBO | Links
Com | Nav | Svcs | Stats | Notes

Auburn-Lewiston Municipal Airport
 
Area around ME11 (Cooper Seaplane Base)
 
Road maps at: MapQuest Bing Google
 
Aerial photo
No photo
 
Sectional chart

 
Airport distance calculator
Flying to Cooper Seaplane Base? Find the distance to fly.

From to ME11

Sunrise and sunset
Times for 27-May-2018
 Local
(UTC-4)
 Zulu
(UTC)
Morning civil twilight04:2908:29
Sunrise05:0409:04
Sunset20:1200:12
Evening civil twilight20:4800:48

Current date and time
Zulu (UTC)  28-May-2018 03:34:53
Local (UTC-4)  27-May-2018 23:34:53
 
METAR
KLEW 
19nm S 
280256Z AUTO 10004KT 10SM OVC060 09/05 A3023 RMK AO2 SLP255 T00940050 58002
KAUG 
21nm E 
280253Z AUTO 00000KT 10SM OVC060 09/03 A3024 RMK AO2 SLP242 T00940033 58001
KWVL 
29nm E 
280256Z AUTO 00000KT 10SM OVC060 09/02 A3022 RMK AO2 SLP261 T00940022 50000 $
KIWI 
33nm SE 
280253Z AUTO 07003KT 10SM OVC070 09/06 A3026 RMK AO2 SLP245 T00890061 55002
KIZG 
36nm SW 
280254Z AUTO 00000KT 10SM BKN049 OVC060 10/06 A3022 RMK AO2 SLP236 T01000056 58002
TAF
KAUG 
21nm E 
271725Z 2718/2818 15010KT P6SM OVC070 FM272300 15005KT P6SM OVC050 FM280500 VRB03KT P6SM OVC020
NOTAMs
Click for the latest NOTAMs
NOTAMs are issued by the DoD/FAA and will open in a separate window not controlled by AirNav.

 

 
 

Would you like to see your business listed on this page?

 If your business provides an interesting product or service to pilots, flight crews, aircraft, or users of the Cooper Seaplane Base, you should consider listing it here.  To start the listing process, click on the button below
 
Add a business
 

Other Pages about Cooper Seaplane Base

Update a link
 
Copyright © AirNav, LLC. All rights reserved. Privacy Policy  Contact